Regional Weather Roundup
Issued by NWS Upton, NY

Current Version | Previous Version | Graphics & Text | Print | Product List | Glossary Off
Versions: 1 2 3 4 5 6 7 8 9 10 11 12 13 14 15 16 17 18 19 20 21 22 23 24 25 26 27 28 29 30 31 32 33 34 35 36 37 38 39 40 41 42 43 44 45 46 47 48 49 50

000
ASUS41 KOKX 202205
RWROKX

REGIONAL WEATHER ROUNDUP
NATIONAL WEATHER SERVICE NEW YORK NY
500 PM EST THU NOV 20 2014

NOTE: "FAIR" INDICATES FEW OR NO CLOUDS BELOW 12,000 FEET WITH NO
SIGNIFICANT WEATHER AND/OR OBSTRUCTIONS TO VISIBILITY.

NYZ071-072-176-178-NJZ106-104-202300-
NEW YORK CITY METRO AREA


CITY           SKY/WX    TMP DP  RH WIND       PRES   REMARKS
CENTRAL PARK   CLEAR     44  17  33 VRB3G21   29.89R
LAGUARDIA APRT PTCLDY    44  17  33 W18G28    29.87R
KENNEDY INTL   PTCLDY    45  21  38 W20G25    29.88R
NEWARK/LIBERTY PTCLDY    43  18  36 W14       29.87R
BRNX BOT. GARD   N/A    N/A N/A N/A W20       29.85F
TETERBORO      CLEAR     42  19  39 W8        29.86R
$$

NYZ177-179-078>081-202300-
LONG ISLAND NEW YORK

CITY           SKY/WX    TMP DP  RH WIND       PRES   REMARKS
FARMINGDALE    CLEAR     44  22  41 W15       29.86R
ISLIP          PTCLDY    43  23  45 W14       29.85R
SHIRLEY        CLEAR     42  25  50 SW9       29.86R
WESTHAMPTON    CLEAR     40  24  53 SW8       29.87R WCI  34
MONTAUK POINT    N/A     46  26  45 SW10G21   29.86R
$$

NYZ052-065-067-202300-
HUDSON VALLEY

CITY           SKY/WX    TMP DP  RH WIND       PRES   REMARKS
WHITE PLAINS   PTCLDY    40  17  39 W7        29.84R
NEWBURGH       CLEAR     36  14  41 W16G23    29.85R WCI  26
MONTGOMERY     CLEAR     37  11  34 W10       29.84R WCI  30
POUGHKEEPSIE   CLEAR     39  11  31 W14G24    29.85R WCI  31
ALBANY         FLURRIES  30  21  69 NW17      29.87R WCI  18
$$

NJZ001-105-106-008-010-013-015-019>022-104-202300-
NEW JERSEY

CITY           SKY/WX    TMP DP  RH WIND       PRES   REMARKS
NEWARK/LIBERTY PTCLDY    43  18  36 W14       29.87R
TETERBORO      CLEAR     42  19  39 W8        29.86R
CALDWELL       CLEAR     41  15  35 W15G22    29.88R
MORRISTOWN     PTCLDY    41  16  36 W10G23    29.88R
SOMERVILLE     CLEAR     41  16  36 NW8       29.87R
SUSSEX         CLEAR     37  13  37 W9        29.87R WCI  30
ANDOVER          N/A     37  14  38 VRB3      29.87R
TRENTON        CLEAR     42  20  41 W7        29.89R
MILLVILLE      CLEAR     38  26  62 CALM      29.90R
ATLANTIC CITY  CLEAR     45  25  45 W7        29.90R
WRIGHTSTOWN    PTCLDY    42  24  49 W6        29.87R
TOMS RIVER     CLEAR     43  25  49 CALM      29.89R
BELMAR         CLEAR     43  23  45 W7        29.88R
$$

PAZ047>061-062-071-202300-
EASTERN PENNSYLVANIA

CITY           SKY/WX    TMP DP  RH WIND       PRES   REMARKS
PHILADELPHIA   PTCLDY    46  23  40 W8        29.91R
ALLENTOWN      CLEAR     38  14  37 W14       29.90R WCI  30
SCRANTON       CLEAR     31  10  41 W10       29.89R WCI  22
$$

CTZ002-004>006-009-010-012-RIZ004-006-007-MAZ004-011-015-202300-
SOUTHERN NEW ENGLAND
 IN CT

CITY           SKY/WX    TMP DP  RH WIND       PRES   REMARKS
BRADLEY INTL   PTCLDY    41  15  35 W8        29.80R
HARTFORD       CLEAR     42  16  34 W9        29.82R
DANBURY        CLEAR     40  12  32 W10G23    29.84R WCI  33
WTRBRY/OXFORD  PTCLDY    39  16  38 W8G18     29.82R WCI  34
BRIDGEPORT     CLEAR     44  21  40 W14G26    29.84R
MERIDEN        CLEAR     42  17  36 SW6       29.83R
NEW HAVEN      PTCLDY    46  22  38 W10G20    29.84R
CHESTER        FAIR      41  19  42 W9G22     29.82R
GROTON         PTCLDY    44  26  49 W18G31    29.82R
WILLIMANTIC    PTCLDY    41  18  39 W6        29.81R

 IN RI

CITY           SKY/WX    TMP DP  RH WIND       PRES   REMARKS
PROVIDENCE     PTCLDY    43  23  45 SW14      29.80R
BLOCK ISLAND   CLEAR     45  27  49 W21G26    29.82R
WESTERLY       PTCLDY    44  26  49 SW17G33   29.82S

 IN MA

CITY           SKY/WX    TMP DP  RH WIND       PRES   REMARKS
BOSTON         PTCLDY    43  17  35 W10       29.78R
WORCESTER      CLEAR     35  14  42 W9        29.76R WCI  28
WESTFIELD      CLEAR     38  12  34 W9        29.80R WCI  31
PROVINCETOWN   CLEAR     46  25  42 SW26      29.79R
NANTUCKET      MOCLDY    49  32  52 W18G29    29.82R
$$

ANZ330-335-338-340-345-350-353-355-202300-
COASTAL MARINE OBSERVATIONS


STATION/POSITION TIME  SKY/WX   TEMP    WIND        PRES    VSBY  WAVE
                                AIR SEA DIR/SP/G                  HT/PER
                 (UTC)          (F)     (DEG/KT/KT) (MB)    (MI)  (FT/S)
NY HARB ENTRANCE 2200            48 57  270/ 19/ 23 1011.3          4/ 8
4S FIRE IS       2200               53                N/A           6/ 8
20S FIRE ISLAND  2100            49 56  260/ 19/ 23 1010.5          6/ 8
23SW MTP         2200                                 N/A           7/ 8
HUDSON CANYON    2200            51 60  260/ 21/ 25 1011.2
EXECUTION ROCKS  2200            45 48  270/ 17/ 27   N/A
WESTERN LI SOUND 2200            45     260/ 17/ 23   N/A           3/ 4
CENTRAL LI SOUND 2100            46 52  240/ 25/ 33   N/A           5/ 5
EASTERN LI SOUND 2100            47 53  240/ 27/ 37   N/A
ROBBINS REEF     2200            44     280/ 15/ 17 1010.3
$$


>>>>>>>>>>>>>>>>>>>>>>>>>>>> KEY <<<<<<<<<<<<<<<<<<<<<<<<<<<
>                                                          <
>     SKY/WX - SKY CONDITION/PRESENT WEATHER               <
>     TMP    - TEMPERATURE IN FAHRENHEIT                   <
>     DP     - DEWPOINT IN FAHRENHEIT                      <
>     RH     - RELATIVE HUMIDITY IN PERCENT                <
>     WIND   - DIRECTION AND SPEED IN MPH                  <
>     PRES   - MEAN SEA LEVEL PRESSURE IN INCHES OF HG     <
>     WCI    - WIND CHILL INDEX                            <
>     VSB    - VISIBILITY IN MILES                         <
>     HX     - HEAT INDEX                                  <
>     TC     - TEMPERATURE IN CELSIUS                      <
>     VRB    - VARIABLE WIND DIRECTION                     <
>                                                          <
>>>>>>>>>>>>>>>>>>>>>>>>>>>> KEY <<<<<<<<<<<<<<<<<<<<<<<<<<<





USA.gov is the U.S. government's official web portal to all federal, state and local government web resources and services.